Hourly Data Report for August 18, 2006

TORONTO CITY
ONTARIO

43°40'00.000" N
79°24'00.000" W
112.50 m
6158355
71508
XTO

Download Data

Hourly Data (August 2006)
Hourly Data Report for August 18, 2006
TIME
LST
Temp Definition
°C
Dew Point Definition
°C
Rel Hum Definition
%
Precip. Amount Definition
mm

Wind Dir Definition
10's deg

Wind Spd Definition
km/h
Visibility Definition
km
Stn Press Definition
kPa
Hmdx Definition


Wind Chill Definition


Weather Definition


00:00 22.0 18.9 83   LegendMM LegendMM   100.68 29   LegendNANA
01:00 22.0 18.9 83   LegendMM LegendMM   100.58 29   LegendNANA
02:00 21.8 18.7 83   LegendMM LegendMM   100.53 28   LegendNANA
03:00 21.4 18.2 82   LegendMM LegendMM   100.49 28   LegendNANA
04:00 21.1 18.3 84   LegendMM LegendMM   100.47 27   LegendNANA
05:00 20.7 18.3 86   LegendMM LegendMM   100.50 27   LegendNANA
06:00 20.3 18.5 89   LegendMM LegendMM   100.48 27   LegendNANA
07:00 21.4 19.3 88   LegendMM LegendMM   100.49 28   LegendNANA
08:00 22.6 20.0 85   LegendMM LegendMM   100.50 30   LegendNANA
09:00 24.0 19.7 77   LegendMM LegendMM   100.48 31   LegendNANA
10:00 25.9 19.2 67   LegendMM LegendMM   100.45 33   LegendNANA
11:00 26.4 19.7 67   LegendMM LegendMM   100.43 34   LegendNANA
12:00 27.6 20.7 66   LegendMM LegendMM   100.36 36   LegendNANA
13:00 27.5 21.0 68   LegendMM LegendMM   100.34 36   LegendNANA
14:00 28.2 19.4 59   LegendMM LegendMM   100.33 35   LegendNANA
15:00 29.0 18.6 53   LegendMM LegendMM   100.28 35   LegendNANA
16:00 28.8 17.7 51   LegendMM LegendMM   100.25 35   LegendNANA
17:00 28.6 18.0 53   LegendMM LegendMM   100.23 35   LegendNANA
18:00 26.7 19.1 63   LegendMM LegendMM   100.21 34   LegendNANA
19:00 25.9 18.7 65   LegendMM LegendMM   100.21 32   LegendNANA
20:00 26.1 15.1 51   LegendMM LegendMM   100.24 30   LegendNANA
21:00 25.0 15.1 54   LegendMM LegendMM   100.26 29   LegendNANA
22:00 24.6 14.8 54   LegendMM LegendMM   100.25 28   LegendNANA
23:00 24.0 15.3 58   LegendMM LegendMM   100.22 28   LegendNANA

Notes on Data Quality.

Legend

  • E = Estimated
  • M = Missing
  • NA = Not Available*
  • [empty] = Indicates an unobserved value
Date modified: